Terminal Aerodrome Forecast
Issued by NWS

Home | Current Version | Previous Version | Graphics & Text | Print | Product List | Glossary On
Versions: 1 2 3 4 5 6 7 8 9 10 11 12 13 14 15 16 17 18 19 20
000
FTUS43 KTOP 250500
TAFMHK
TAF
KMHK 250520Z 2506/2606 14008KT P6SM SCT060 SCT100=

USA.gov is the U.S. government's official web portal to all federal, state and local government web resources and services.